FW7718 Weather Reports


Display with metric or nautical units.
time (UTC)temp
F
wind
direction
speed
MPH
gust
MPH
rain 1hr
in
rain 24hr
in
rain mn
in
humidity
%
barometer
mb
20260510015133 75 71 0.0 1.0 0.00 0.00 0.00 74 1010.9
20260510014627 76 71 1.0 1.0 0.00 0.00 0.00 74 1010.7
20260510014125 76 70 1.0 2.0 0.00 0.00 0.00 73 1010.5
20260510013625 76 74 1.0 1.0 0.00 0.00 0.00 73 1010.6
20260510013120 76 76 2.0 2.0 0.00 0.00 0.00 72 1010.6
20260510012615 77 82 1.0 2.0 0.00 0.00 0.00 71 1010.7
20260510012112 77 83 0.0 0.0 0.00 0.00 0.00 70 1010.4
20260510011611 78 83 0.0 0.0 0.00 0.00 0.00 69 1010.2
20260510011107 78 83 0.0 0.0 0.00 0.00 0.00 67 1010.1
20260510010604 79 83 0.0 0.0 0.00 0.00 0.00 67 1010.0
20260510005556 80 83 0.0 0.0 0.00 0.00 0.00 63 1010.0
20260510005054 80 83 0.0 0.0 0.00 0.00 0.00 63 1010.0
20260510004552 81 83 0.0 0.0 0.00 0.00 0.00 64 1009.8
20260510004049 81 83 1.0 1.0 0.00 0.00 0.00 63 1009.8
20260510003546 82 82 2.0 2.0 0.00 0.00 0.00 61 1009.8
20260510003042 82 85 2.0 2.0 0.00 0.00 0.00 60 1010.0
20260510002537 82 70 1.0 1.0 0.00 0.00 0.00 59 1009.8
20260510002034 82 63 2.0 2.0 0.00 0.00 0.00 59 1010.0
20260510001531 83 67 2.0 2.0 0.00 0.00 0.00 58 1010.0
20260510001030 83 61 2.0 2.0 0.00 0.00 0.00 57 1010.0
20260510000524 83 73 3.0 5.0 0.00 0.00 0.00 57 1010.2
20260510000022 84 58 3.0 3.0 0.00 0.00 0.00 57 1010.1
20260509235518 84 75 1.0 2.0 0.00 0.00 0.00 57 1009.9
20260509235015 84 63 1.0 2.0 0.00 0.00 0.00 57 1009.9
20260509234511 84 57 3.0 3.0 0.00 0.00 0.00 55 1010.0
20260509234009 84 53 3.0 3.0 0.00 0.00 0.00 57 1010.1
20260509233506 84 48 3.0 3.0 0.00 0.00 0.00 55 1010.1
20260509233002 84 75 3.0 3.0 0.00 0.00 0.00 56 1009.7
20260509232500 84 81 4.0 5.0 0.00 0.00 0.00 56 1010.0
20260509231956 84 57 3.0 3.0 0.00 0.00 0.00 54 1010.0
20260509231453 85 27 3.0 3.0 0.00 0.00 0.00 56 1009.9
20260509230951 85 44 2.0 3.0 0.00 0.00 0.00 56 1010.0
20260509230447 84 33 3.0 5.0 0.00 0.00 0.00 55 1010.0
20260509225943 84 60 3.0 3.0 0.00 0.00 0.00 56 1010.0
20260509225440 84 49 3.0 3.0 0.00 0.00 0.00 58 1009.9
20260509224936 85 47 6.0 8.0 0.00 0.00 0.00 55 1009.8
20260509224431 85 77 2.0 2.0 0.00 0.00 0.00 56 1009.8
20260509223929 85 59 5.0 6.0 0.00 0.00 0.00 54 1009.5
20260509223425 85 69 6.0 7.0 0.00 0.00 0.00 56 1009.9
20260509222923 85 61 2.0 2.0 0.00 0.00 0.00 56 1009.9
20260509222417 85 33 4.0 5.0 0.00 0.00 0.00 56 1009.8
20260509221913 85 29 5.0 6.0 0.00 0.00 0.00 59 1009.8
20260509221411 86 96 5.0 6.0 0.00 0.00 0.00 56 1009.7
20260509220907 86 86 6.0 7.0 0.00 0.00 0.00 56 1009.8
20260509220402 86 357 2.0 2.0 0.00 0.00 0.00 55 1009.8
20260509215858 86 91 2.0 2.0 0.00 0.00 0.00 53 1009.9
20260509215355 86 97 3.0 3.0 0.00 0.00 0.00 57 1009.8
20260509214852 85 64 2.0 2.0 0.00 0.00 0.00 59 1009.9
20260509214349 86 336 5.0 6.0 0.00 0.00 0.00 58 1009.9
20260509213846 85 37 2.0 3.0 0.00 0.00 0.00 61 1010.1
20260509213341 85 61 1.0 1.0 0.00 0.00 0.00 58 1010.0
20260509212839 85 45 6.0 9.0 0.00 0.00 0.00 59 1010.1
20260509212337 85 74 3.0 5.0 0.00 0.00 0.00 59 1010.2
20260509211832 85 84 2.0 2.0 0.00 0.00 0.00 57 1010.4
20260509211328 85 87 6.0 8.0 0.00 0.00 0.00 56 1010.4
20260509210825 85 39 2.0 2.0 0.00 0.00 0.00 57 1010.5
20260509210323 85 5 4.0 6.0 0.00 0.00 0.00 58 1010.5
20260509205822 86 49 7.0 8.0 0.00 0.00 0.00 60 1010.4
20260509205317 85 156 1.0 2.0 0.00 0.00 0.00 59 1010.5
20260509204814 85 89 1.0 2.0 0.00 0.00 0.00 58 1010.7
20260509204310 85 45 1.0 1.0 0.00 0.00 0.00 62 1011.0
20260509203806 84 2 2.0 2.0 0.00 0.00 0.00 61 1011.1
20260509203304 84 63 2.0 2.0 0.00 0.00 0.00 62 1011.2
20260509202800 85 48 1.0 2.0 0.00 0.00 0.00 59 1011.1
20260509202256 85 103 0.0 1.0 0.00 0.00 0.00 60 1011.3
20260509201750 84 49 2.0 2.0 0.00 0.00 0.00 62 1011.0
20260509201247 84 340 3.0 3.0 0.00 0.00 0.00 62 1011.1
20260509200743 84 46 4.0 5.0 0.00 0.00 0.00 63 1011.1
20260509200238 84 48 6.0 8.0 0.00 0.00 0.00 63 1011.2
20260509195735 83 346 3.0 3.0 0.00 0.00 0.00 66 1011.2
20260509195230 83 9 2.0 3.0 0.00 0.00 0.00 66 1011.3
20260509194730 84 7 3.0 5.0 0.00 0.00 0.00 64 1011.3
20260509194226 83 35 4.0 6.0 0.00 0.00 0.00 64 1011.4
20260509193723 83 50 4.0 6.0 0.00 0.00 0.00 64 1011.6
20260509193218 82 52 3.0 5.0 0.00 0.00 0.00 67 1011.5
20260509192714 82 74 1.0 1.0 0.00 0.00 0.00 66 1011.4
20260509192209 84 76 5.0 6.0 0.00 0.00 0.00 64 1011.5
20260509191705 82 357 6.0 7.0 0.00 0.00 0.00 66 1011.7
20260509191202 83 352 4.0 5.0 0.00 0.00 0.00 65 1011.7
20260509190658 84 34 4.0 5.0 0.00 0.00 0.00 65 1011.6
20260509190155 83 52 2.0 2.0 0.00 0.00 0.00 64 1011.8
20260509185653 82 72 5.0 6.0 0.00 0.00 0.00 66 1011.6
20260509185148 82 61 3.0 5.0 0.00 0.00 0.00 69 1011.6
20260509184647 83 61 5.0 6.0 0.00 0.00 0.00 64 1011.7
20260509184143 83 351 4.0 5.0 0.00 0.00 0.00 66 1011.9
20260509183639 83 32 4.0 5.0 0.00 0.00 0.00 65 1011.5
20260509183134 83 341 4.0 5.0 0.00 0.00 0.00 64 1011.5
20260509182631 82 42 3.0 5.0 0.00 0.00 0.00 67 1011.7
20260509182128 82 358 6.0 8.0 0.00 0.00 0.00 67 1011.8
20260509181626 82 0 5.0 6.0 0.00 0.00 0.00 68 1011.7
20260509181124 82 66 7.0 8.0 0.00 0.00 0.00 66 1011.9
20260509180620 81 4 2.0 2.0 0.00 0.00 0.00 72 1011.8
20260509180116 81 44 3.0 3.0 0.00 0.00 0.00 70 1011.8
20260509175612 80 52 2.0 2.0 0.00 0.00 0.00 68 1012.0
20260509175109 80 52 3.0 5.0 0.00 0.00 0.00 71 1011.9
20260509174605 83 81 4.0 5.0 0.00 0.00 0.00 65 1012.1
20260509174101 82 95 1.0 2.0 0.00 0.00 0.00 68 1012.1
20260509173556 82 348 4.0 6.0 0.00 0.00 0.00 70 1012.0
20260509173052 82 68 3.0 3.0 0.00 0.00 0.00 68 1012.1
20260509172549 82 349 5.0 6.0 0.00 0.00 0.00 71 1012.2
20260509172045 82 23 4.0 6.0 0.00 0.00 0.00 72 1012.0
20260509171541 81 4 7.0 7.0 0.00 0.00 0.00 71 1012.0
20260509171038 80 58 4.0 5.0 0.00 0.00 0.00 72 1012.1
20260509170533 81 3 4.0 5.0 0.00 0.00 0.00 69 1012.1
20260509170029 81 359 3.0 5.0 0.00 0.00 0.00 70 1012.2
20260509165528 81 45 4.0 6.0 0.00 0.00 0.00 69 1012.3
20260509165024 81 338 2.0 2.0 0.00 0.00 0.00 70 1012.3
20260509164520 79 64 1.0 1.0 0.00 0.00 0.00 75 1012.2
20260509164016 80 21 2.0 3.0 0.00 0.00 0.00 71 1012.3
20260509163514 80 14 3.0 5.0 0.00 0.00 0.00 72 1012.3
20260509163013 80 313 0.0 1.0 0.00 0.00 0.00 69 1012.3
20260509162512 81 18 3.0 3.0 0.00 0.00 0.00 69 1012.3
20260509162002 81 72 0.0 1.0 0.00 0.00 0.00 68 1012.2
20260509161459 81 2 2.0 5.0 0.00 0.00 0.00 69 1011.9
20260509160954 80 58 3.0 3.0 0.00 0.00 0.00 71 1012.0
20260509160449 81 72 1.0 1.0 0.00 0.00 0.00 68 1012.0
20260509155944 80 52 2.0 2.0 0.00 0.00 0.00 71 1011.9
20260509155441 80 289 3.0 3.0 0.00 0.00 0.00 71 1012.2
20260509154937 79 8 4.0 5.0 0.00 0.00 0.00 70 1012.0
20260509154434 78 356 3.0 6.0 0.00 0.00 0.00 73 1012.0
20260509153931 78 61 2.0 2.0 0.00 0.00 0.00 77 1012.0
20260509153428 77 334 3.0 5.0 0.00 0.00 0.00 76 1012.2
20260509152925 78 233 3.0 3.0 0.00 0.00 0.00 73 1011.9
20260509152420 78 342 3.0 3.0 0.00 0.00 0.00 74 1012.0
20260509151918 78 20 2.0 2.0 0.00 0.00 0.00 73 1011.9
20260509151414 77 6 2.0 3.0 0.00 0.00 0.00 73 1011.9
20260509150912 76 345 4.0 5.0 0.00 0.00 0.00 78 1012.1
20260509150410 75 57 2.0 2.0 0.00 0.00 0.00 81 1012.0
20260509145908 75 321 3.0 3.0 0.00 0.00 0.00 85 1012.1
20260509145407 75 75 2.0 2.0 0.00 0.00 0.00 86 1012.2
20260509144903 74 75 0.0 1.0 0.00 0.00 0.00 87 1012.2
20260509144400 74 75 0.0 0.0 0.00 0.00 0.00 87 1012.2
20260509143857 74 75 1.0 2.0 0.00 0.00 0.00 87 1012.2
20260509143355 73 100 0.0 0.0 0.00 0.00 0.00 88 1012.1
20260509142851 73 100 1.0 1.0 0.00 0.00 0.00 88 1012.0
20260509142348 73 110 0.0 0.0 0.00 0.00 0.00 90 1011.9
20260509141843 73 110 1.0 1.0 0.00 0.00 0.00 90 1012.2
20260509141341 73 121 2.0 2.0 0.00 0.00 0.00 91 1012.0
20260509140837 73 98 2.0 2.0 0.00 0.00 0.00 91 1012.0
20260509140334 73 114 3.0 3.0 0.00 0.00 0.00 92 1011.9
20260509135832 73 120 2.0 2.0 0.00 0.00 0.00 93 1011.9
20260509135330 73 129 2.0 2.0 0.00 0.00 0.00 93 1011.7
20260509134827 72 95 1.0 2.0 0.00 0.00 0.00 94 1011.7
20260509134324 72 152 3.0 3.0 0.00 0.00 0.00 94 1011.8
20260509133820 72 116 1.0 2.0 0.00 0.00 0.00 94 1011.8
20260509133317 72 109 3.0 3.0 0.00 0.00 0.00 95 1011.8
20260509132816 71 105 2.0 3.0 0.00 0.00 0.00 95 1011.9
20260509132314 71 105 2.0 2.0 0.00 0.00 0.00 95 1011.6
20260509131811 71 108 3.0 3.0 0.00 0.00 0.00 95 1011.6
20260509131308 71 93 3.0 5.0 0.00 0.00 0.00 95 1011.7
20260509130804 71 109 2.0 2.0 0.00 0.00 0.00 96 1011.6
20260509130259 71 114 3.0 5.0 0.00 0.00 0.00 96 1011.8
20260509125756 70 97 3.0 3.0 0.00 0.00 0.00 96 1011.7
20260509125253 70 94 2.0 2.0 0.00 0.00 0.00 96 1011.8
20260509124750 69 93 1.0 1.0 0.00 0.00 0.00 96 1011.7
20260509124246 69 81 2.0 2.0 0.00 0.00 0.00 96 1011.6
20260509123744 69 80 3.0 5.0 0.00 0.00 0.00 96 1011.9
20260509123241 69 88 3.0 3.0 0.00 0.00 0.00 97 1011.7
20260509122737 69 90 3.0 3.0 0.00 0.00 0.00 96 1011.9
20260509122234 69 79 2.0 2.0 0.00 0.00 0.00 96 1011.9
20260509121730 69 87 1.0 1.0 0.00 0.00 0.00 96 1012.0
20260509121228 69 96 1.0 1.0 0.00 0.00 0.00 96 1011.9
20260509120726 69 97 1.0 1.0 0.00 0.00 0.00 96 1011.9
20260509120224 69 69 1.0 1.0 0.00 0.00 0.00 96 1011.8
20260509115721 69 67 0.0 0.0 0.00 0.00 0.00 96 1011.9
20260509115218 69 66 0.0 0.0 0.00 0.00 0.00 96 1011.7
20260509114717 69 66 0.0 1.0 0.00 0.00 0.00 96 1011.9
20260509114215 69 66 0.0 0.0 0.00 0.00 0.00 96 1011.5
20260509113713 69 66 0.0 1.0 0.00 0.00 0.00 96 1011.6
20260509113210 69 66 0.0 1.0 0.00 0.00 0.00 96 1011.5
20260509112706 69 66 0.0 0.0 0.00 0.00 0.00 96 1011.5
20260509112203 68 65 1.0 1.0 0.00 0.00 0.00 96 1011.4
20260509111700 68 65 1.0 1.0 0.00 0.00 0.00 96 1011.5
20260509111157 68 65 1.0 1.0 0.00 0.00 0.00 96 1011.4
20260509110654 68 64 1.0 1.0 0.00 0.00 0.00 96 1011.0
20260509110151 68 65 1.0 1.0 0.00 0.00 0.00 96 1011.2
20260509105650 68 66 2.0 2.0 0.00 0.00 0.00 96 1010.7
20260509105147 68 86 2.0 2.0 0.00 0.00 0.00 96 1010.7
20260509104644 68 116 2.0 2.0 0.00 0.00 0.00 96 1010.6
20260509104141 68 105 1.0 1.0 0.00 0.00 0.00 95 1010.5
20260509103639 68 106 1.0 1.0 0.00 0.00 0.00 95 1010.7
20260509103136 69 165 2.0 3.0 0.00 0.00 0.00 95 1010.3
20260509102634 69 153 1.0 2.0 0.00 0.00 0.00 95 1010.3
20260509102131 68 174 2.0 2.0 0.00 0.00 0.00 95 1010.3
20260509101627 69 163 3.0 3.0 0.00 0.00 0.00 95 1010.3
20260509101124 69 184 3.0 3.0 0.00 0.00 0.00 95 1010.4
20260509100621 68 201 4.0 5.0 0.00 0.00 0.00 95 1010.2
20260509100118 68 196 3.0 3.0 0.00 0.00 0.00 95 1010.4
20260509095614 68 140 0.0 1.0 0.00 0.00 0.00 95 1010.1
20260509095112 68 140 1.0 1.0 0.00 0.00 0.00 95 1010.3
20260509094608 68 156 4.0 5.0 0.00 0.00 0.00 95 1009.9
20260509094106 68 122 3.0 3.0 0.00 0.00 0.00 95 1009.6
20260509093604 68 146 4.0 6.0 0.00 0.00 0.00 95 1009.7
20260509093101 68 92 4.0 6.0 0.00 0.00 0.00 95 1010.1
20260509092558 68 82 4.0 5.0 0.00 0.00 0.00 95 1009.9
20260509092057 68 79 4.0 6.0 0.00 0.00 0.00 95 1009.7
20260509091554 68 78 4.0 5.0 0.00 0.00 0.00 95 1009.9
20260509091051 68 110 4.0 5.0 0.00 0.00 0.00 95 1010.0
20260509090548 68 101 4.0 6.0 0.00 0.00 0.00 95 1009.9
20260509090046 68 87 5.0 6.0 0.00 0.00 0.00 94 1010.0
20260509085543 68 91 4.0 5.0 0.00 0.00 0.00 94 1010.1
20260509085038 68 96 4.0 5.0 0.00 0.00 0.00 94 1010.4
20260509084536 68 103 4.0 5.0 0.00 0.00 0.00 94 1010.4
20260509084033 68 99 3.0 3.0 0.00 0.00 0.00 94 1010.9
20260509083530 68 87 2.0 2.0 0.00 0.00 0.00 94 1011.1
20260509083027 68 95 3.0 3.0 0.00 0.00 0.00 94 1010.7
20260509082525 68 97 1.0 2.0 0.00 0.00 0.00 94 1011.1
20260509082021 68 117 2.0 2.0 0.00 0.00 0.00 94 1011.2
20260509081519 68 117 2.0 2.0 0.00 0.00 0.00 94 1011.1
20260509081015 68 117 2.0 2.0 0.00 0.00 0.00 94 1011.3
20260509080513 68 117 1.0 1.0 0.00 0.00 0.00 94 1010.9
20260509080011 68 119 2.0 2.0 0.00 0.00 0.00 93 1011.3
20260509075508 68 118 2.0 2.0 0.00 0.00 0.00 93 1011.6
20260509075006 68 185 1.0 1.0 0.00 0.00 0.00 94 1011.7
20260509074503 68 109 1.0 1.0 0.00 0.00 0.00 93 1011.8
20260509073959 68 136 2.0 2.0 0.00 0.00 0.00 93 1012.0
20260509073456 68 75 3.0 3.0 0.00 0.00 0.00 93 1012.1
20260509072952 68 67 2.0 2.0 0.00 0.00 0.00 93 1012.4
20260509072449 68 71 1.0 2.0 0.00 0.00 0.00 93 1012.5
20260509071946 68 42 2.0 2.0 0.00 0.00 0.00 93 1012.6
20260509071442 69 44 2.0 2.0 0.00 0.00 0.00 93 1012.4
20260509070940 69 64 1.0 1.0 0.00 0.00 0.00 93 1012.3
20260509070437 69 66 2.0 2.0 0.00 0.00 0.00 93 1012.1
20260509065932 69 80 0.0 1.0 0.00 0.00 0.00 93 1012.3
20260509065428 69 78 1.0 1.0 0.00 0.00 0.00 93 1012.2
20260509064925 69 86 3.0 3.0 0.00 0.00 0.00 93 1012.4
20260509064423 69 78 3.0 5.0 0.00 0.00 0.00 93 1012.2
20260509063920 69 88 3.0 5.0 0.00 0.00 0.00 93 1012.4
20260509063416 69 77 3.0 3.0 0.00 0.00 0.00 93 1012.0
20260509062913 69 99 3.0 3.0 0.00 0.00 0.00 93 1011.8
20260509062410 69 94 3.0 3.0 0.00 0.00 0.00 93 1012.0
20260509061908 69 83 3.0 3.0 0.00 0.00 0.00 93 1012.0
20260509061406 69 91 4.0 5.0 0.00 0.00 0.00 92 1012.1
20260509060902 69 94 2.0 2.0 0.00 0.00 0.00 92 1012.2
20260509060359 69 103 2.0 2.0 0.00 0.00 0.00 92 1011.8
20260509055855 69 134 1.0 2.0 0.00 0.00 0.00 91 1012.0
20260509055350 69 182 2.0 2.0 0.00 0.00 0.00 91 1012.2
20260509054847 69 179 1.0 1.0 0.00 0.00 0.00 91 1012.0
20260509054344 69 179 1.0 1.0 0.00 0.00 0.00 91 1012.2
20260509053842 69 179 0.0 0.0 0.00 0.00 0.00 91 1012.2
20260509053339 69 179 0.0 0.0 0.00 0.00 0.00 91 1012.1
20260509052837 69 195 2.0 2.0 0.00 0.00 0.00 91 1012.1
20260509052335 69 195 2.0 2.0 0.00 0.00 0.00 90 1012.3
20260509051832 69 153 1.0 1.0 0.00 0.00 0.00 91 1012.1
20260509051330 69 156 1.0 2.0 0.00 0.00 0.00 91 1011.8
20260509050826 69 203 2.0 2.0 0.00 0.00 0.00 91 1011.9
20260509050323 69 183 4.0 5.0 0.00 0.00 0.00 92 1011.7
20260509045820 69 198 7.0 7.0 0.00 0.19 0.19 92 1011.5
20260509045317 69 210 3.0 3.0 0.00 0.19 0.19 92 1011.7
20260509044814 69 121 0.0 0.0 0.00 0.19 0.19 92 1012.0
20260509044312 69 120 0.0 0.0 0.00 0.19 0.19 92 1012.0
20260509043808 69 120 0.0 1.0 0.00 0.19 0.19 92 1011.7
20260509043304 69 99 3.0 3.0 0.00 0.19 0.19 92 1011.5
20260509042800 69 119 4.0 6.0 0.00 0.19 0.19 91 1011.8
20260509042257 69 152 5.0 7.0 0.00 0.19 0.19 91 1011.6
20260509041753 69 162 3.0 3.0 0.00 0.19 0.19 90 1012.0
20260509041250 69 141 6.0 8.0 0.00 0.19 0.19 89 1011.6
20260509040749 69 133 5.0 7.0 0.00 0.19 0.19 88 1011.0
20260509040246 70 192 7.0 9.0 0.00 0.19 0.19 87 1011.0
20260509035742 70 177 9.0 10.0 0.00 0.19 0.19 86 1011.2
20260509035239 70 141 5.0 6.0 0.00 0.19 0.19 86 1011.7
20260509034736 70 166 4.0 5.0 0.00 0.19 0.19 86 1011.9
20260509034234 70 168 2.0 2.0 0.00 0.19 0.19 86 1012.0
20260509033731 70 51 1.0 1.0 0.00 0.19 0.19 86 1012.1
20260509033228 70 57 1.0 1.0 0.00 0.19 0.19 86 1012.1
20260509032725 70 68 1.0 2.0 0.00 0.19 0.19 86 1012.2
20260509032222 70 66 1.0 2.0 0.00 0.19 0.19 86 1012.3
20260509031720 70 54 2.0 2.0 0.00 0.19 0.19 86 1011.9
20260509031217 70 11 3.0 3.0 0.00 0.19 0.19 84 1011.6
20260509030715 70 130 1.0 1.0 0.00 0.19 0.19 83 1011.3
20260509030212 71 132 1.0 1.0 0.00 0.19 0.19 82 1011.2
20260509025708 71 133 1.0 1.0 0.00 0.19 0.19 81 1011.5
20260509025204 71 133 0.0 0.0 0.00 0.19 0.19 81 1011.6
20260509024659 71 134 0.0 0.0 0.00 0.19 0.19 80 1011.8
20260509024155 71 134 0.0 0.0 0.00 0.19 0.19 81 1011.7
20260509023654 71 134 1.0 1.0 0.00 0.19 0.19 81 1011.4
20260509023150 71 134 0.0 1.0 0.00 0.19 0.19 81 1011.4
20260509022646 71 133 0.0 1.0 0.00 0.19 0.19 81 1011.2
20260509022144 71 147 2.0 2.0 0.00 0.19 0.19 80 1011.0
20260509021641 71 145 2.0 2.0 0.00 0.19 0.19 80 1011.0
20260509021138 71 147 1.0 1.0 0.00 0.19 0.19 80 1010.6
20260509020637 71 170 1.0 2.0 0.00 0.19 0.19 80 1010.5
20260509020133 71 139 1.0 1.0 0.00 0.19 0.19 80 1010.4
20260509015632 71 122 1.0 1.0 0.00 0.19 0.19 79 1010.4